| time (UTC) | temp F | wind direction | speed knots | gust knots | rain 1hr in | rain 24hr in | rain mn in | humidity % | barometer mb |
| 20260507052557 | 53 | 208 | 2.6 | 4.3 | 0.00 | 0.22 | 0.07 | 92 | 1011.1 |
| 20260507052055 | 54 | 143 | 1.7 | 4.3 | 0.00 | 0.22 | 0.07 | 91 | 1011.5 |
| 20260507052046 | 53 | 89 | 0.9 | 4.3 | 0.00 | 0.22 | 0.07 | 92 | 1011.1 |
| 20260507051055 | 53 | 209 | 0.9 | 4.3 | 0.00 | 0.22 | 0.07 | 94 | 1011.1 |
| 20260507050806 | 51 | 287 | 0.9 | 3.5 | 0.00 | 0.22 | 0.07 | 96 | 1010.8 |
| 20260507050655 | 52 | 207 | 1.7 | 4.3 | 0.00 | 0.22 | 0.07 | 94 | 1010.8 |
| 20260507045557 | 51 | 236 | 1.7 | 4.3 | 0.00 | 0.22 | 0.07 | 96 | 1010.8 |
| 20260507045531 | 50 | 320 | 1.7 | 4.3 | 0.00 | 0.22 | 0.07 | 96 | 1011.0 |
| 20260507045046 | 51 | 46 | 0.9 | 4.3 | 0.00 | 0.22 | 0.07 | 96 | 1010.9 |
| 20260507044319 | 50 | 224 | 0.9 | 3.5 | 0.00 | 0.22 | 0.07 | 97 | 1010.6 |
| 20260507043556 | 50 | 242 | 1.7 | 5.2 | 0.00 | 0.22 | 0.07 | 97 | 1010.6 |
| 20260507043055 | 50 | 224 | 2.6 | 5.2 | 0.00 | 0.22 | 0.07 | 97 | 1010.7 |
| 20260507042557 | 50 | 292 | 0.0 | 4.3 | 0.00 | 0.22 | 0.07 | 97 | 1010.4 |
| 20260507042055 | 50 | 207 | 0.9 | 3.5 | 0.00 | 0.22 | 0.07 | 97 | 1010.5 |
| 20260507041821 | 50 | 292 | 1.7 | 3.5 | 0.00 | 0.22 | 0.07 | 97 | 1010.7 |
| 20260507041325 | 50 | 190 | 1.7 | 3.5 | 0.00 | 0.22 | 0.07 | 97 | 1010.6 |
| 20260507040821 | 50 | 234 | 1.7 | 4.3 | 0.00 | 0.22 | 0.07 | 96 | 1010.6 |
| 20260507040055 | 50 | 335 | 1.7 | 4.3 | 0.00 | 0.22 | 0.07 | 96 | 1010.5 |
| 20260507035557 | 50 | 223 | 1.7 | 3.5 | 0.00 | 0.22 | 0.07 | 96 | 1010.5 |
| 20260507035333 | 50 | 328 | 1.7 | 3.5 | 0.00 | 0.22 | 0.07 | 97 | 1010.4 |
| 20260507034558 | 50 | 269 | 1.7 | 3.5 | 0.00 | 0.22 | 0.07 | 97 | 1010.8 |
| 20260507034058 | 50 | 287 | 1.7 | 5.2 | 0.00 | 0.22 | 0.07 | 97 | 1010.3 |
| 20260507033821 | 51 | 332 | 1.7 | 5.2 | 0.00 | 0.22 | 0.07 | 97 | 1010.6 |
| 20260507033056 | 51 | 206 | 1.7 | 4.3 | 0.00 | 0.22 | 0.07 | 96 | 1010.6 |
| 20260507032818 | 51 | 277 | 0.9 | 4.3 | 0.00 | 0.22 | 0.07 | 96 | 1010.4 |
| 20260507032055 | 51 | 137 | 1.7 | 5.2 | 0.00 | 0.22 | 0.07 | 96 | 1010.5 |
| 20260507031820 | 51 | 223 | 1.7 | 7.0 | 0.00 | 0.22 | 0.07 | 96 | 1010.6 |
| 20260507031056 | 51 | 81 | 1.7 | 7.0 | 0.00 | 0.22 | 0.07 | 96 | 1010.5 |
| 20260507031023 | 51 | 234 | 1.7 | 4.3 | 0.01 | 0.22 | 0.07 | 97 | 1010.4 |
| 20260507030822 | 51 | 220 | 1.7 | 5.2 | 0.00 | 0.22 | 0.07 | 97 | 1010.4 |
| 20260507030037 | 51 | 264 | 1.7 | 4.3 | 0.02 | 0.22 | 0.07 | 97 | 1010.4 |
| 20260507025059 | 51 | 192 | 1.7 | 5.2 | 0.02 | 0.22 | 0.07 | 97 | 1010.5 |
| 20260507024559 | 51 | 274 | 1.7 | 5.2 | 0.02 | 0.22 | 0.07 | 97 | 1010.4 |
| 20260507024055 | 51 | 196 | 2.6 | 4.3 | 0.02 | 0.22 | 0.07 | 97 | 1010.4 |
| 20260507023816 | 51 | 282 | 0.9 | 4.3 | 0.02 | 0.22 | 0.07 | 98 | 1010.3 |
| 20260507023055 | 51 | 197 | 2.6 | 4.3 | 0.02 | 0.22 | 0.07 | 98 | 1010.2 |
| 20260507022819 | 51 | 206 | 1.7 | 3.5 | 0.02 | 0.22 | 0.07 | 98 | 1010.3 |
| 20260507022316 | 51 | 210 | 0.9 | 4.3 | 0.02 | 0.22 | 0.07 | 97 | 1010.4 |
| 20260507022046 | 51 | 255 | 1.7 | 4.3 | 0.02 | 0.22 | 0.07 | 97 | 1010.2 |
| 20260507021804 | 51 | 210 | 0.9 | 4.3 | 0.02 | 0.22 | 0.07 | 97 | 1010.3 |
| 20260507021301 | 52 | 284 | 2.6 | 4.3 | 0.02 | 0.22 | 0.07 | 97 | 1010.2 |
| 20260507020320 | 52 | 214 | 1.7 | 3.5 | 0.01 | 0.21 | 0.06 | 96 | 1010.0 |
| 20260507015559 | 52 | 248 | 1.7 | 3.5 | 0.00 | 0.20 | 0.06 | 96 | 1010.5 |
| 20260507015314 | 52 | 262 | 1.7 | 4.3 | 0.00 | 0.20 | 0.06 | 96 | 1010.5 |
| 20260507014602 | 52 | 200 | 2.6 | 4.3 | 0.00 | 0.20 | 0.06 | 96 | 1010.4 |
| 20260507014056 | 52 | 244 | 3.5 | 4.3 | 0.00 | 0.20 | 0.06 | 96 | 1010.5 |
| 20260507013821 | 52 | 298 | 1.7 | 4.3 | 0.00 | 0.20 | 0.06 | 97 | 1010.3 |
| 20260507013315 | 52 | 357 | 1.7 | 4.3 | 0.00 | 0.20 | 0.06 | 97 | 1010.2 |
| 20260507012556 | 51 | 221 | 1.7 | 3.5 | 0.00 | 0.20 | 0.06 | 98 | 1010.3 |
| 20260507012102 | 51 | 227 | 2.6 | 3.5 | 0.00 | 0.20 | 0.06 | 98 | 1010.1 |
| 20260507011556 | 51 | 208 | 1.7 | 3.5 | 0.00 | 0.20 | 0.06 | 98 | 1010.3 |
| 20260507011543 | 52 | 200 | 1.7 | 3.5 | 0.00 | 0.20 | 0.06 | 98 | 1010.5 |
| 20260507010815 | 51 | 215 | 2.6 | 4.3 | 0.00 | 0.20 | 0.06 | 98 | 1010.2 |
| 20260507010054 | 52 | 190 | 1.7 | 4.3 | 0.00 | 0.20 | 0.06 | 98 | 1010.0 |
| 20260507005557 | 52 | 213 | 3.5 | 4.3 | 0.00 | 0.20 | 0.06 | 97 | 1010.2 |
| 20260507005054 | 52 | 212 | 0.9 | 4.3 | 0.00 | 0.20 | 0.06 | 97 | 1010.1 |
| 20260507004557 | 52 | 188 | 1.7 | 4.3 | 0.00 | 0.20 | 0.06 | 98 | 1010.4 |
| 20260507004314 | 52 | 187 | 1.7 | 4.3 | 0.00 | 0.20 | 0.06 | 98 | 1010.0 |
| 20260507003813 | 52 | 254 | 1.7 | 4.3 | 0.00 | 0.20 | 0.06 | 98 | 1010.1 |
| 20260507003313 | 52 | 190 | 1.7 | 3.5 | 0.01 | 0.20 | 0.06 | 98 | 1010.0 |
| 20260507002555 | 52 | 267 | 1.7 | 3.5 | 0.01 | 0.20 | 0.06 | 99 | 1010.2 |
| 20260507002315 | 52 | 194 | 3.5 | 3.5 | 0.02 | 0.20 | 0.06 | 99 | 1010.4 |
| 20260507002048 | 52 | 231 | 0.0 | 3.5 | 0.02 | 0.20 | 0.06 | 99 | 1010.2 |
| 20260507001057 | 52 | 233 | 0.9 | 2.6 | 0.02 | 0.20 | 0.06 | 98 | 1010.3 |
| 20260507000555 | 52 | 204 | 1.7 | 3.5 | 0.02 | 0.20 | 0.06 | 98 | 1010.2 |
| 20260507000054 | 52 | 237 | 0.9 | 3.5 | 0.02 | 0.20 | 0.06 | 98 | 1010.4 |
| 20260506235556 | 52 | 265 | 0.9 | 4.3 | 0.02 | 0.20 | 0.06 | 98 | 1010.2 |
| 20260506235054 | 52 | 344 | 1.7 | 4.3 | 0.02 | 0.20 | 0.06 | 99 | 1010.1 |
| 20260506234818 | 52 | 211 | 1.7 | 3.5 | 0.03 | 0.20 | 0.06 | 99 | 1010.1 |
| 20260506234055 | 52 | 226 | 1.7 | 3.5 | 0.04 | 0.20 | 0.06 | 98 | 1010.0 |
| 20260506234038 | 52 | 210 | 1.7 | 3.5 | 0.04 | 0.20 | 0.06 | 98 | 1010.1 |
| 20260506233057 | 52 | 237 | 1.7 | 2.6 | 0.04 | 0.20 | 0.05 | 98 | 1010.3 |
| 20260506232555 | 52 | 292 | 1.7 | 3.5 | 0.04 | 0.20 | 0.05 | 98 | 1010.1 |
| 20260506232510 | 52 | 273 | 0.0 | 4.3 | 0.04 | 0.19 | 0.04 | 99 | 1010.1 |
| 20260506232054 | 52 | 219 | 1.7 | 3.5 | 0.03 | 0.19 | 0.04 | 98 | 1010.3 |
| 20260506232048 | 52 | 265 | 1.7 | 3.5 | 0.03 | 0.19 | 0.04 | 99 | 1010.3 |
| 20260506230559 | 52 | 235 | 0.0 | 4.3 | 0.04 | 0.19 | 0.04 | 99 | 1010.0 |
| 20260506230054 | 52 | 208 | 1.7 | 3.5 | 0.04 | 0.19 | 0.04 | 98 | 1009.9 |
| 20260506225556 | 52 | 158 | 0.0 | 3.5 | 0.04 | 0.19 | 0.04 | 98 | 1010.1 |
| 20260506225314 | 52 | 307 | 0.9 | 3.5 | 0.05 | 0.18 | 0.04 | 98 | 1010.2 |
| 20260506224558 | 52 | 224 | 0.0 | 3.5 | 0.06 | 0.17 | 0.02 | 98 | 1010.1 |
| 20260506224054 | 52 | 201 | 1.7 | 3.5 | 0.06 | 0.17 | 0.02 | 98 | 1010.3 |
| 20260506223559 | 52 | 309 | 0.9 | 3.5 | 0.08 | 0.17 | 0.02 | 98 | 1010.0 |
| 20260506223054 | 52 | 299 | 0.0 | 3.5 | 0.08 | 0.16 | 0.01 | 98 | 1009.8 |
| 20260506223048 | 52 | 323 | 0.9 | 3.5 | 0.09 | 0.16 | 0.01 | 98 | 1009.9 |
| 20260506222054 | 52 | 202 | 0.0 | 2.6 | 0.09 | 0.16 | 0.01 | 98 | 1010.0 |
| 20260506221556 | 52 | 201 | 0.0 | 2.6 | 0.10 | 0.16 | 0.01 | 98 | 1010.1 |
| 20260506221315 | 52 | 210 | 1.7 | 1.7 | 0.09 | 0.15 | 0.00 | 98 | 1009.9 |
| 20260506220817 | 52 | 162 | 0.0 | 2.6 | 0.09 | 0.15 | 0.00 | 98 | 1010.1 |
| 20260506220055 | 52 | 284 | 1.7 | 2.6 | 0.09 | 0.15 | 0.00 | 98 | 1010.1 |
| 20260506215558 | 53 | 286 | 0.0 | 2.6 | 0.09 | 0.15 | 1.28 | 97 | 1010.0 |
| 20260506215054 | 53 | 332 | 0.0 | 3.5 | 0.08 | 0.13 | 1.26 | 97 | 1009.9 |
| 20260506214824 | 53 | 22 | 0.0 | 3.5 | 0.06 | 0.11 | 1.24 | 97 | 1010.0 |
| 20260506214053 | 53 | 321 | 1.7 | 3.5 | 0.05 | 0.10 | 1.23 | 97 | 1010.0 |
| 20260506213556 | 53 | 151 | 3.5 | 3.5 | 0.03 | 0.09 | 1.21 | 97 | 1010.0 |
| 20260506213057 | 53 | 166 | 0.0 | 4.3 | 0.04 | 0.08 | 1.20 | 97 | 1010.0 |
| 20260506212821 | 53 | 111 | 2.6 | 5.2 | 0.03 | 0.07 | 1.20 | 96 | 1009.9 |
| 20260506212317 | 53 | 163 | 0.9 | 5.2 | 0.02 | 0.06 | 1.19 | 96 | 1009.9 |
| 20260506211823 | 53 | 1 | 0.9 | 5.2 | 0.02 | 0.06 | 1.18 | 96 | 1009.9 |
| 20260506211055 | 53 | 264 | 1.7 | 5.2 | 0.02 | 0.06 | 1.18 | 97 | 1009.9 |
| 20260506210556 | 52 | 53 | 2.6 | 4.3 | 0.02 | 0.06 | 1.18 | 97 | 1009.8 |
| 20260506210054 | 52 | 88 | 0.9 | 3.5 | 0.02 | 0.06 | 1.18 | 97 | 1009.6 |
| 20260506205817 | 52 | 151 | 2.6 | 5.2 | 0.02 | 0.06 | 1.18 | 97 | 1009.8 |
| 20260506205542 | 52 | 13 | 0.0 | 5.2 | 0.02 | 0.06 | 1.18 | 97 | 1009.7 |
| 20260506204557 | 52 | 163 | 1.7 | 4.3 | 0.02 | 0.06 | 1.18 | 97 | 1009.7 |
| 20260506204054 | 52 | 6 | 0.0 | 3.5 | 0.02 | 0.06 | 1.18 | 97 | 1009.6 |
| 20260506203556 | 53 | 258 | 0.9 | 2.6 | 0.02 | 0.06 | 1.18 | 97 | 1009.6 |
| 20260506203549 | 53 | 266 | 1.7 | 1.7 | 0.00 | 0.04 | 1.17 | 97 | 1009.8 |
| 20260506203318 | 53 | 224 | 0.0 | 1.7 | 0.00 | 0.04 | 1.17 | 97 | 1009.7 |
| 20260506202054 | 53 | 243 | 0.0 | 2.6 | 0.00 | 0.04 | 1.17 | 96 | 1009.7 |
| 20260506201815 | 53 | 116 | 0.0 | 2.6 | 0.00 | 0.04 | 1.17 | 96 | 1009.7 |
| 20260506201547 | 53 | 171 | 1.7 | 3.5 | 0.00 | 0.04 | 1.17 | 96 | 1009.6 |
| 20260506200556 | 53 | 162 | 0.9 | 3.5 | 0.00 | 0.04 | 1.17 | 96 | 1009.5 |
| 20260506200055 | 53 | 290 | 2.6 | 3.5 | 0.00 | 0.04 | 1.17 | 95 | 1009.4 |
| 20260506195814 | 53 | 4 | 2.6 | 3.5 | 0.00 | 0.04 | 1.17 | 95 | 1009.0 |
| 20260506195535 | 53 | 324 | 1.7 | 4.3 | 0.00 | 0.04 | 1.17 | 94 | 1009.2 |
| 20260506194557 | 53 | 277 | 0.9 | 4.3 | 0.00 | 0.04 | 1.17 | 93 | 1009.0 |
| 20260506194053 | 54 | 15 | 0.9 | 3.5 | 0.00 | 0.04 | 1.17 | 93 | 1008.8 |
| 20260506193556 | 53 | 237 | 0.9 | 4.3 | 0.00 | 0.04 | 1.17 | 93 | 1008.8 |
| 20260506193549 | 53 | 107 | 1.7 | 4.3 | 0.00 | 0.04 | 1.17 | 93 | 1008.8 |
| 20260506193257 | 54 | 5 | 0.9 | 5.2 | 0.00 | 0.04 | 1.17 | 93 | 1008.7 |
| 20260506192053 | 54 | 22 | 3.5 | 5.2 | 0.00 | 0.04 | 1.17 | 93 | 1008.6 |
| 20260506191555 | 53 | 306 | 2.6 | 4.3 | 0.00 | 0.04 | 1.17 | 94 | 1008.5 |
| 20260506191053 | 53 | 203 | 1.7 | 4.3 | 0.00 | 0.04 | 1.17 | 95 | 1008.7 |
| 20260506190555 | 53 | 267 | 1.7 | 4.3 | 0.00 | 0.04 | 1.17 | 96 | 1008.6 |
| 20260506190053 | 53 | 177 | 0.0 | 3.5 | 0.00 | 0.04 | 1.17 | 97 | 1008.3 |
| 20260506185814 | 53 | 350 | 3.5 | 4.3 | 0.00 | 0.04 | 1.17 | 97 | 1008.2 |
| 20260506185319 | 53 | 201 | 0.0 | 4.3 | 0.01 | 0.04 | 1.17 | 97 | 1007.9 |
| 20260506184559 | 53 | 221 | 0.9 | 3.5 | 0.02 | 0.04 | 1.17 | 97 | 1007.9 |
| 20260506184317 | 53 | 300 | 0.9 | 2.6 | 0.04 | 0.04 | 1.17 | 97 | 1007.9 |
| 20260506183555 | 53 | 238 | 1.7 | 2.6 | 0.04 | 0.04 | 1.17 | 96 | 1007.9 |
| 20260506183053 | 53 | 137 | 0.0 | 5.2 | 0.04 | 0.04 | 1.17 | 96 | 1007.9 |
| 20260506182558 | 53 | 319 | 1.7 | 5.2 | 0.04 | 0.04 | 1.17 | 96 | 1007.6 |
| 20260506182053 | 53 | 267 | 2.6 | 4.3 | 0.04 | 0.04 | 1.17 | 96 | 1007.6 |
| 20260506182039 | 53 | 246 | 0.0 | 4.3 | 0.04 | 0.04 | 1.17 | 95 | 1007.6 |
| 20260506181053 | 53 | 255 | 4.3 | 4.3 | 0.04 | 0.04 | 1.17 | 93 | 1007.9 |
| 20260506181007 | 54 | 232 | 1.7 | 4.3 | 0.04 | 0.04 | 1.17 | 90 | 1006.9 |
| 20260506180901 | 54 | 185 | 1.7 | 2.6 | 0.04 | 0.04 | 1.17 | 92 | 1007.6 |
| 20260506180054 | 54 | 59 | 0.9 | 3.5 | 0.04 | 0.04 | 1.17 | 91 | 1007.3 |
| 20260506175053 | 55 | 199 | 0.9 | 4.3 | 0.03 | 0.03 | 1.16 | 89 | 1007.0 |
| 20260506174556 | 56 | 331 | 1.7 | 4.3 | 0.02 | 0.02 | 1.16 | 85 | 1007.0 |
| 20260506174057 | 56 | 158 | 0.9 | 3.5 | 0.00 | 0.00 | 1.13 | 82 | 1007.1 |
| 20260506173555 | 56 | 17 | 0.9 | 2.6 | 0.00 | 0.00 | 1.13 | 84 | 1007.1 |
| 20260506173053 | 56 | 233 | 0.0 | 3.5 | 0.00 | 0.00 | 1.13 | 82 | 1006.9 |
| 20260506172827 | 57 | 289 | 1.7 | 4.3 | 0.00 | 0.00 | 1.13 | 81 | 1006.9 |
| 20260506172310 | 57 | 145 | 1.7 | 4.3 | 0.00 | 0.00 | 1.13 | 79 | 1006.9 |
| 20260506171555 | 57 | 20 | 1.7 | 6.1 | 0.00 | 0.00 | 1.13 | 79 | 1006.8 |
| 20260506171320 | 57 | 180 | 0.9 | 6.1 | 0.00 | 0.00 | 1.13 | 78 | 1006.6 |
| 20260506170823 | 57 | 263 | 0.9 | 6.1 | 0.00 | 0.00 | 1.13 | 76 | 1006.5 |
| 20260506170053 | 58 | 251 | 1.7 | 6.1 | 0.00 | 0.00 | 1.13 | 77 | 1006.4 |
| 20260506165817 | 58 | 249 | 1.7 | 6.1 | 0.00 | 0.00 | 1.13 | 76 | 1006.3 |
| 20260506165320 | 58 | 138 | 3.5 | 6.1 | 0.00 | 0.00 | 1.13 | 77 | 1006.3 |
| 20260506164557 | 58 | 325 | 3.5 | 6.1 | 0.00 | 0.00 | 1.13 | 76 | 1006.3 |
| 20260506164053 | 58 | 244 | 2.6 | 5.2 | 0.00 | 0.00 | 1.13 | 76 | 1006.3 |
| 20260506164044 | 58 | 253 | 1.7 | 7.0 | 0.00 | 0.00 | 1.13 | 76 | 1006.0 |
| 20260506163054 | 58 | 307 | 3.5 | 7.0 | 0.00 | 0.00 | 1.13 | 75 | 1006.2 |
| 20260506162818 | 58 | 25 | 1.7 | 7.8 | 0.00 | 0.00 | 1.13 | 76 | 1006.3 |
| 20260506162054 | 57 | 20 | 1.7 | 7.8 | 0.00 | 0.00 | 1.13 | 76 | 1006.2 |
| 20260506161820 | 58 | 200 | 1.7 | 6.1 | 0.00 | 0.00 | 1.13 | 78 | 1006.1 |
| 20260506161052 | 58 | 78 | 5.2 | 9.6 | 0.00 | 0.00 | 1.13 | 77 | 1006.1 |
| 20260506161043 | 57 | 249 | 2.6 | 9.6 | 0.00 | 0.00 | 1.13 | 77 | 1006.0 |
| 20260506160053 | 57 | 258 | 1.7 | 7.0 | 0.00 | 0.00 | 1.13 | 78 | 1006.0 |
| 20260506155555 | 57 | 247 | 1.7 | 7.0 | 0.00 | 0.00 | 1.13 | 79 | 1006.0 |
| 20260506155053 | 57 | 348 | 1.7 | 9.6 | 0.00 | 0.00 | 1.13 | 79 | 1006.1 |
| 20260506154559 | 57 | 177 | 3.5 | 9.6 | 0.00 | 0.00 | 1.13 | 80 | 1006.1 |
| 20260506154056 | 57 | 202 | 2.6 | 9.6 | 0.00 | 0.00 | 1.13 | 78 | 1006.3 |
| 20260506154018 | 57 | 299 | 4.3 | 8.7 | 0.00 | 0.00 | 1.13 | 78 | 1005.9 |
| 20260506153555 | 57 | 346 | 2.6 | 7.0 | 0.00 | 0.00 | 1.13 | 79 | 1006.1 |
| 20260506152553 | 57 | 314 | 3.5 | 10.4 | 0.00 | 0.00 | 1.13 | 79 | 1006.1 |
| 20260506152053 | 57 | 77 | 3.5 | 10.4 | 0.00 | 0.00 | 1.13 | 78 | 1006.1 |
| 20260506151553 | 57 | 228 | 2.6 | 8.7 | 0.00 | 0.00 | 1.13 | 74 | 1007.1 |
| 20260506151057 | 58 | 147 | 1.7 | 10.4 | 0.00 | 0.00 | 1.13 | 73 | 1007.2 |
| 20260506150554 | 58 | 174 | 1.7 | 10.4 | 0.00 | 0.00 | 1.13 | 73 | 1007.2 |
| 20260506150051 | 58 | 10 | 3.5 | 7.0 | 0.00 | 0.00 | 1.13 | 73 | 1007.2 |
| 20260506145552 | 58 | 327 | 0.9 | 9.6 | 0.00 | 0.00 | 1.13 | 73 | 1007.2 |
| 20260506145545 | 58 | 219 | 0.9 | 9.6 | 0.00 | 0.00 | 1.13 | 73 | 1007.2 |
| 20260506144519 | 59 | 61 | 0.9 | 0.0 | 0.00 | 0.00 | 1.13 | 72 | 1007.2 |
| 20260506144129 | 59 | 57 | 0.9 | 5.2 | 0.00 | 0.00 | 1.13 | 73 | 1007.2 |
| 20260506143629 | 58 | 150 | 0.9 | 7.8 | 0.00 | 0.00 | 1.13 | 75 | 1007.3 |
| 20260506143128 | 58 | 314 | 0.9 | 7.8 | 0.00 | 0.00 | 1.13 | 76 | 1007.3 |
| 20260506142629 | 58 | 236 | 0.9 | 7.0 | 0.00 | 0.00 | 1.13 | 75 | 1007.2 |
| 20260506142352 | 58 | 261 | 0.0 | 8.7 | 0.00 | 0.00 | 1.13 | 75 | 1007.2 |
| 20260506141629 | 58 | 133 | 0.0 | 8.7 | 0.00 | 0.00 | 1.13 | 76 | 1007.1 |
| 20260506141128 | 58 | 191 | 0.9 | 6.1 | 0.00 | 0.00 | 1.13 | 76 | 1007.0 |
| 20260506140626 | 58 | 127 | 0.9 | 6.1 | 0.00 | 0.00 | 1.13 | 76 | 1007.1 |
| 20260506140611 | 58 | 277 | 0.0 | 4.3 | 0.00 | 0.00 | 1.13 | 77 | 1007.2 |
| 20260506135626 | 58 | 320 | 0.9 | 7.8 | 0.00 | 0.00 | 1.13 | 78 | 1007.1 |
| 20260506135618 | 58 | 297 | 0.9 | 7.8 | 0.00 | 0.00 | 1.13 | 79 | 1007.2 |
| 20260506134627 | 58 | 289 | 0.9 | 5.2 | 0.00 | 0.00 | 1.13 | 80 | 1007.3 |
| 20260506134349 | 57 | 328 | 0.9 | 5.2 | 0.00 | 0.00 | 1.13 | 79 | 1007.4 |
| 20260506133709 | 57 | 39 | 0.9 | 0.0 | 0.00 | 0.00 | 1.13 | 78 | 1007.5 |
| 20260506133443 | 58 | 39 | 0.9 | 0.0 | 0.00 | 0.00 | 1.13 | 78 | 1007.5 |
| 20260506133224 | 58 | 39 | 0.9 | 0.0 | 0.00 | 0.00 | 1.13 | 78 | 1007.5 |
| 20260506132817 | 58 | 311 | 0.9 | 6.1 | 0.00 | 1.13 | 1.13 | 80 | 1007.6 |
| 20260506132320 | 58 | 41 | 0.9 | 6.1 | 0.00 | 1.13 | 1.13 | 80 | 1007.5 |
| 20260506131545 | 57 | 328 | 0.0 | 3.5 | 0.00 | 1.13 | 1.13 | 85 | 1007.6 |
| 20260506131041 | 56 | 352 | 0.0 | 3.5 | 0.00 | 1.13 | 1.13 | 86 | 1007.6 |
| 20260506130319 | 56 | 328 | 0.0 | 2.6 | 0.00 | 1.13 | 1.13 | 87 | 1007.5 |
| 20260506130045 | 55 | 234 | 0.0 | 2.6 | 0.00 | 1.13 | 1.13 | 88 | 1007.5 |
| 20260506125319 | 55 | 168 | 0.0 | 0.0 | 0.01 | 1.13 | 1.13 | 89 | 1007.5 |
| 20260506124819 | 55 | 33 | 0.0 | 2.6 | 0.02 | 1.13 | 1.13 | 91 | 1007.4 |
| 20260506122816 | 52 | 25 | 0.0 | 0.0 | 0.94 | 1.13 | 1.13 | 93 | 1007.3 |
| 20260506122543 | 52 | 18 | 0.0 | 0.0 | 0.94 | 1.13 | 1.13 | 92 | 1007.4 |
| 20260506121819 | 51 | 104 | 0.9 | 8.7 | 0.94 | 1.13 | 1.13 | 93 | 1007.3 |
| 20260506121317 | 51 | 78 | 0.9 | 8.7 | 0.94 | 1.13 | 1.13 | 93 | 1007.2 |
| 20260506120816 | 51 | 53 | 0.0 | 5.2 | 0.94 | 1.13 | 1.13 | 93 | 1007.1 |
| 20260506120319 | 50 | 185 | 0.0 | 2.6 | 0.94 | 1.13 | 1.13 | 93 | 1006.8 |
| 20260506115816 | 50 | 69 | 0.0 | 1.7 | 0.94 | 1.13 | 1.13 | 93 | 1006.5 |
| 20260506115318 | 49 | 345 | 2.6 | 5.2 | 0.94 | 1.12 | 1.13 | 99 | 1006.4 |
| 20260506114318 | 48 | 307 | 1.7 | 7.0 | 0.83 | 0.98 | 0.99 | 98 | 1006.3 |
| 20260506114048 | 48 | 266 | 1.7 | 7.0 | 0.75 | 0.80 | 0.80 | 98 | 1008.1 |
| 20260506112537 | 56 | 294 | 1.7 | 5.2 | 0.18 | 0.18 | 0.18 | 99 | 1006.3 |
| 20260506111814 | 56 | 194 | 0.9 | 5.2 | 0.18 | 0.18 | 0.18 | 99 | 1006.3 |
| 20260506111538 | 56 | 182 | 1.7 | 4.3 | 0.18 | 0.18 | 0.18 | 99 | 1006.5 |
| 20260506110811 | 56 | 279 | 1.7 | 1.7 | 0.18 | 0.18 | 0.18 | 99 | 1006.3 |
| 20260506110537 | 56 | 327 | 0.0 | 4.3 | 0.18 | 0.18 | 0.18 | 99 | 1006.3 |
| 20260506105811 | 56 | 281 | 0.0 | 4.3 | 0.18 | 0.18 | 0.18 | 99 | 1006.4 |
| 20260506104814 | 56 | 156 | 2.6 | 5.2 | 0.17 | 0.17 | 0.17 | 98 | 1006.5 |
| 20260506104540 | 56 | 159 | 1.7 | 7.8 | 0.16 | 0.16 | 0.16 | 97 | 1006.3 |
| 20260506103811 | 56 | 170 | 4.3 | 7.8 | 0.05 | 0.05 | 0.08 | 96 | 1006.6 |
| 20260506103537 | 56 | 129 | 2.6 | 12.2 | 0.00 | 0.00 | 0.00 | 94 | 1006.3 |
| 20260506102811 | 57 | 157 | 5.2 | 12.2 | 0.00 | 0.00 | 0.00 | 93 | 1006.3 |
| 20260506102537 | 57 | 173 | 6.1 | 12.2 | 0.00 | 0.00 | 0.00 | 93 | 1006.1 |
| 20260506101313 | 57 | 182 | 4.3 | 11.3 | 0.00 | 0.00 | 0.00 | 93 | 1006.5 |
| 20260506101035 | 57 | 56 | 1.7 | 9.6 | 0.00 | 0.00 | 0.00 | 93 | 1006.3 |
| 20260506100312 | 57 | 167 | 1.7 | 9.6 | 0.00 | 0.00 | 0.00 | 93 | 1006.6 |
| 20260506095811 | 57 | 157 | 7.0 | 9.6 | 0.00 | 0.00 | 0.00 | 94 | 1006.5 |
| 20260506094811 | 56 | 158 | 7.0 | 12.2 | 0.00 | 0.00 | 0.00 | 94 | 1006.7 |
| 20260506094540 | 56 | 116 | 4.3 | 12.2 | 0.00 | 0.00 | 0.00 | 94 | 1006.5 |
| 20260506093313 | 56 | 190 | 2.6 | 7.8 | 0.00 | 0.00 | 0.00 | 95 | 1006.4 |
| 20260506092811 | 56 | 176 | 3.5 | 7.8 | 0.00 | 0.00 | 0.00 | 95 | 1006.5 |
| 20260506091810 | 56 | 157 | 5.2 | 7.8 | 0.00 | 0.00 | 0.00 | 95 | 1006.7 |
| 20260506091315 | 56 | 158 | 5.2 | 7.0 | 0.00 | 0.00 | 0.00 | 96 | 1006.5 |
| 20260506091029 | 56 | 177 | 2.6 | 10.4 | 0.00 | 0.00 | 0.00 | 96 | 1006.6 |
| 20260506090312 | 56 | 47 | 2.6 | 10.4 | 0.00 | 0.00 | 0.00 | 95 | 1006.6 |
| 20260506085811 | 56 | 161 | 6.1 | 8.7 | 0.00 | 0.00 | 0.00 | 95 | 1006.5 |
| 20260506085529 | 56 | 158 | 3.5 | 8.7 | 0.00 | 0.00 | 0.00 | 95 | 1006.5 |
| 20260506085038 | 56 | 202 | 4.3 | 9.6 | 0.00 | 0.00 | 0.00 | 96 | 1006.4 |
| 20260506084323 | 56 | 180 | 3.5 | 11.3 | 0.00 | 0.00 | 0.00 | 95 | 1006.4 |
| 20260506083814 | 55 | 189 | 7.0 | 9.6 | 0.00 | 0.00 | 0.00 | 96 | 1006.6 |
| 20260506083313 | 55 | 159 | 4.3 | 7.8 | 0.00 | 0.00 | 0.00 | 97 | 1006.6 |
| 20260506082811 | 56 | 180 | 5.2 | 11.3 | 0.00 | 0.00 | 0.00 | 97 | 1006.6 |
| 20260506082312 | 55 | 169 | 3.5 | 11.3 | 0.00 | 0.00 | 0.00 | 97 | 1006.7 |
| 20260506081814 | 55 | 172 | 5.2 | 11.3 | 0.00 | 0.00 | 0.00 | 98 | 1006.8 |
| 20260506081536 | 55 | 159 | 3.5 | 10.4 | 0.00 | 0.00 | 0.00 | 99 | 1006.5 |
| 20260506080810 | 55 | 158 | 8.7 | 10.4 | 0.00 | 0.00 | 0.00 | 99 | 1006.7 |
| 20260506080315 | 55 | 198 | 2.6 | 5.2 | 0.00 | 0.00 | 0.00 | 99 | 1006.3 |
| 20260506073312 | 55 | 176 | 0.9 | 3.5 | 0.00 | 0.00 | 0.00 | 99 | 1006.8 |
| 20260506072533 | 55 | 120 | 0.9 | 3.5 | 0.00 | 0.00 | 0.00 | 99 | 1007.1 |
| 20260506071313 | 55 | 178 | 1.7 | 3.5 | 0.00 | 0.00 | 0.00 | 98 | 1007.1 |
| 20260506070534 | 55 | 207 | 2.6 | 5.2 | 0.00 | 0.00 | 0.00 | 98 | 1007.1 |
| 20260506062036 | 55 | 183 | 1.7 | 3.5 | 0.00 | 0.00 | 0.00 | 99 | 1007.1 |
| 20260506061313 | 55 | 210 | 2.6 | 3.5 | 0.00 | 0.00 | 0.00 | 99 | 1007.3 |
| 20260506061033 | 54 | 185 | 1.7 | 4.3 | 0.00 | 0.00 | 0.00 | 99 | 1007.1 |